SCOUT X-4 DEB, 976

Orbit data source: Space-Track

SCOUT X-4 DEB, 976 is space debris in LEO originally from a launch on Sat, 10 Oct 1964 UTC launched from the Air Force Western Test Range (AFWTR). Debris objects in space refer to the collection of defunct objects orbiting the Earth. Examples of debris include non-operational satellites, rocket bodies, and fragments generated from explosions, collisions, or faulty payload assembly.

Loading next visibility...
Identifier
976, 1964-064C
Orbit
LEO
Last TLE update
10 hours ago
Origin
Manufacturer
APL
Mission
Spacecraft
Bus & Motor
Unknown
Mass
Unknown
Launch date (UTC)
1964-10-10 (61 years ago)
Launch vehicle
Unknown
Launch site
Air Force Western Test Range (AFWTR)
Object type
Payload
Rocket body
Debris
Shape & HBR
Unknown
Radar Cross Section
Small (<0.1 m²)

Expand to show TLE details & history

TLE from 10 hours ago
0 SCOUT X-4 DEB
1 00976U 64064C   25186.52956394  .00000519  00000-0  28694-3 0  9994
2 00976  79.3148   8.0496 0116097 234.4049 124.6253 14.07607581 94198
Epoch: 2025-07-05T12:42Z
TLE epoch observation values (Epoch: 2025-07-05T12:42:34.324Z)
Latitude
-0.00006°
Longitude
-106.35972°
Altitude
918.859 km
Speed
7.368 km/s
True Right ascension
00h 32m 11s
True Declination
0° 00' 00"
Sunlit
Object was in daylight at epoch
Visualization orbit readout
Latitude
-27.64992°
Longitude
-112.49989°
Altitude
889.661 km
Speed
7.4 km/s
Apparent Right ascension
23h 31m 57s
Apparent Declination
-33° 38' 25"
Sunlit
Object is in daylight
Visualization observer readout
Local Sidereal Time
10:44:54
Azimuth
300.026° NW
Elevation
-78.695°
Doppler factor
1
Orbital elements
Apogee altitude
948.938 km
Perigee altitude
780.76 km
Semi-major axis
7,242.986 km
Eccentricity
0.01161
Inclination
79.3148°
RAAN
8.0496°
Arg. of periapsis
234.4049°
True anomaly
Unknown
Mean anomaly
124.6253°
Eccentric anomaly
Unknown
Mean motion
3.52101 °/min
Orbital period
102.24 mins
BSTAR
0.00028694
Loading maneuver chart data...
Loading SW <> Apogee altitude chart data...
Loading historical data...
Loading historical data...
Loading historical data...
Loading historical data...
Loading historical data...
Loading historical data...
Loading historical data...
Other satellites on launch #64 in the year 1964 (1964-10-10 UTC)

SCOUT X-4 DEB Visibility forecast

Observer location: undefined°, undefined°

Span
Click to sort rows by Start time (UTC) header in descending order
Start Az.
Max El. time (UTC)
Max El. Az.
Max El.
End time (UTC)
End Az.
10 mins2025-07-05 23:31:39.553Z356.887° N2025-07-05 23:36:39.553Z73.993° E41.043°2025-07-05 23:41:39.553Z154.283° SSE
5 mins2025-07-06 01:17:39.553Z296.159° NW2025-07-06 01:19:39.553Z271.997° WNW16.248°2025-07-06 01:22:39.553Z238.039° WSW
10 mins2025-07-06 12:42:39.553Z175.204° S2025-07-06 12:47:39.553Z71.483° E41.638°2025-07-06 12:52:39.553Z18.773° NNE
6 mins2025-07-06 14:28:39.553Z265.852° W2025-07-06 14:31:39.553Z301.355° NW18.21°2025-07-06 14:34:39.553Z333.777° NNW
|